Weather History for KBTP - November, 2012

Change the Weather History Date:

Wednesday, November 28, 2012

  Actual Average Record
Temperature  
Mean Temperature 34 °F -  
Max Temperature 39 °F 43 °F 74 °F (1990)
Min Temperature 28 °F 29 °F 12 °F (1977)
Degree Days  
Heating Degree Days 32    
Moisture  
Dew Point 19 °F    
Average Humidity 60    
Maximum Humidity 69    
Minimum Humidity 36    
Precipitation  
Precipitation 0.00 in - - ()
Sea Level Pressure  
Sea Level Pressure 30.29 in    
Wind  
Wind Speed 6 mph (WSW)    
Max Wind Speed 14 mph    
Max Gust Speed 22 mph    
Visibility 10 miles    
Events      
Averages and records for this station are not official NWS values.
T = Trace of Precipitation, MM = Missing Value Source: NWS Daily Summary

Daily Weather History Graph

Daily Weather History Graph

Search for Another Location

Airport or City:

Trip Planner

Search our weather history database for the weather conditions in past years. The results will help you decide how hot, cold, wet, or windy it might be!

Date:

Astronomy

Nov. 28, 2012 Rise Set
Actual Time 7:22 AM EST 4:53 PM EST
Civil Twilight 6:51 AM EST 5:23 PM EST
Nautical Twilight 6:17 AM EST 5:57 PM EST
Astronomical Twilight 5:44 AM EST 6:30 PM EST
Moon 5:07 PM EST (11/28) 7:18 AM EST (11/28)
Length of Visible Light 10h 32m
Length of Day
9h 31m
Full, 100% of the Moon is Illuminated
Nov 28
Full
Dec 6
Last Quarter
Dec 13
New
Dec 20
First Quarter
Dec 28
Full

Hourly Weather History & Observations

Time (EST) Temp. Windchill Dew Point Humidity Pressure Visibility Wind Dir Wind Speed Gust Speed Precip Events Conditions
12:15 AM 30.2 °F 25.4 °F 21.2 °F 69% 30.27 in 10.0 mi WSW 4.6 mph - N/A   Overcast
12:35 AM 30.2 °F 24.3 °F 19.4 °F 64% 30.27 in 10.0 mi WSW 5.8 mph - N/A   Overcast
12:55 AM 28.4 °F 24.6 °F 19.4 °F 69% 30.26 in 10.0 mi WSW 3.5 mph - N/A   Mostly Cloudy
1:15 AM 28.4 °F 24.6 °F 19.4 °F 69% 30.27 in 10.0 mi WSW 3.5 mph - N/A   Mostly Cloudy
1:35 AM 28.4 °F - 19.4 °F 69% 30.26 in 10.0 mi Calm Calm - N/A   Overcast
1:55 AM 28.4 °F - 19.4 °F 69% 30.26 in 10.0 mi Calm Calm - N/A   Overcast
2:15 AM 30.2 °F - 19.4 °F 64% 30.25 in 10.0 mi Calm Calm - N/A   Overcast
2:35 AM 30.2 °F 26.7 °F 19.4 °F 64% 30.25 in 10.0 mi SSW 3.5 mph - N/A   Overcast
2:55 AM 30.2 °F 26.7 °F 19.4 °F 64% 30.26 in 10.0 mi SSW 3.5 mph - N/A   Overcast
3:15 AM 30.2 °F 25.4 °F 19.4 °F 64% 30.26 in 10.0 mi SSW 4.6 mph - N/A   Overcast
3:35 AM 30.2 °F 25.4 °F 19.4 °F 64% 30.25 in 10.0 mi South 4.6 mph - N/A   Overcast
3:55 AM 30.2 °F 25.4 °F 19.4 °F 64% 30.25 in 10.0 mi South 4.6 mph - N/A   Overcast
4:15 AM 30.2 °F 24.3 °F 19.4 °F 64% 30.24 in 10.0 mi SSW 5.8 mph - N/A   Overcast
4:35 AM 30.2 °F 23.4 °F 19.4 °F 64% 30.24 in 10.0 mi SSW 6.9 mph - N/A   Overcast
4:55 AM 30.2 °F 23.4 °F 19.4 °F 64% 30.24 in 10.0 mi SSW 6.9 mph - N/A   Overcast
5:15 AM 30.2 °F 24.3 °F 19.4 °F 64% 30.25 in 10.0 mi SSW 5.8 mph - N/A   Overcast
5:35 AM 30.2 °F 24.3 °F 19.4 °F 64% 30.25 in 10.0 mi SW 5.8 mph - N/A   Overcast
5:55 AM 30.2 °F 23.4 °F 19.4 °F 64% 30.25 in 10.0 mi WSW 6.9 mph - N/A   Overcast
6:15 AM 30.2 °F 24.3 °F 21.2 °F 69% 30.26 in 10.0 mi WSW 5.8 mph - N/A   Overcast
6:35 AM 30.2 °F 21.9 °F 21.2 °F 69% 30.26 in 10.0 mi WSW 9.2 mph - N/A   Overcast
7:15 AM 30.2 °F 25.4 °F 19.4 °F 64% 30.27 in 10.0 mi West 4.6 mph - N/A   Partly Cloudy
7:35 AM 28.4 °F 19.7 °F 19.4 °F 69% 30.28 in 10.0 mi WSW 9.2 mph - N/A   Clear
7:55 AM 28.4 °F 21.2 °F 19.4 °F 69% 30.29 in 10.0 mi WSW 6.9 mph - N/A   Partly Cloudy
8:15 AM 28.4 °F 18.5 °F 19.4 °F 69% 30.28 in 10.0 mi WSW 11.5 mph - N/A   Partly Cloudy
8:35 AM 30.2 °F 19.8 °F 19.4 °F 64% 30.29 in 10.0 mi WSW 13.8 mph 17.3 mph N/A   Clear
8:55 AM 30.2 °F 21.3 °F 19.4 °F 64% 30.29 in 10.0 mi WSW 10.4 mph - N/A   Clear
9:15 AM 30.2 °F 22.6 °F 19.4 °F 64% 30.29 in 10.0 mi WSW 8.1 mph - N/A   Partly Cloudy
9:35 AM 30.2 °F 21.9 °F 21.2 °F 69% 30.30 in 10.0 mi WSW 9.2 mph - N/A   Mostly Cloudy
9:55 AM 32.0 °F 25.6 °F 21.2 °F 64% 30.30 in 10.0 mi WSW 6.9 mph - N/A   Overcast
10:15 AM 32.0 °F 22.5 °F 21.2 °F 64% 30.31 in 10.0 mi West 12.7 mph 17.3 mph N/A   Overcast
10:35 AM 33.8 °F 26.4 °F 21.2 °F 60% 30.30 in 10.0 mi WSW 9.2 mph - N/A   Mostly Cloudy
10:55 AM 33.8 °F 24.3 °F 21.2 °F 60% 30.31 in 10.0 mi WSW 13.8 mph 18.4 mph N/A   Overcast
11:15 AM 33.8 °F 25.8 °F 21.2 °F 60% 30.30 in 10.0 mi West 10.4 mph 18.4 mph N/A   Mostly Cloudy
11:35 AM 33.8 °F 24.8 °F 19.4 °F 56% 30.29 in 10.0 mi West 12.7 mph - N/A   Scattered Clouds
11:55 AM 35.6 °F 27.1 °F 19.4 °F 52% 30.29 in 10.0 mi WSW 12.7 mph 21.9 mph N/A   Partly Cloudy
12:15 PM 35.6 °F 28.6 °F 19.4 °F 52% 30.29 in 10.0 mi WSW 9.2 mph - N/A   Clear
12:35 PM 37.4 °F 30.3 °F 19.4 °F 48% 30.29 in 10.0 mi WSW 10.4 mph 18.4 mph N/A   Clear
12:55 PM 37.4 °F 30.3 °F 19.4 °F 48% 30.28 in 10.0 mi WSW 10.4 mph - N/A   Partly Cloudy
1:35 PM 37.4 °F 29.8 °F 17.6 °F 45% 30.27 in 10.0 mi West 11.5 mph 19.6 mph N/A   Mostly Cloudy
1:55 PM 39.2 °F 33.0 °F 17.6 °F 42% 30.27 in 10.0 mi West 9.2 mph 17.3 mph N/A   Mostly Cloudy
2:15 PM 37.4 °F 30.3 °F 17.6 °F 45% 30.26 in 10.0 mi WSW 10.4 mph 17.3 mph N/A   Partly Cloudy
2:35 PM 39.2 °F 31.2 °F 14.0 °F 36% 30.26 in 10.0 mi West 13.8 mph 19.6 mph N/A   Scattered Clouds
2:55 PM 37.4 °F 30.3 °F 15.8 °F 41% 30.27 in 10.0 mi West 10.4 mph 19.6 mph N/A   Scattered Clouds
3:15 PM 37.4 °F 29.8 °F 15.8 °F 41% 30.28 in 10.0 mi West 11.5 mph 18.4 mph N/A   Mostly Cloudy
3:35 PM 37.4 °F 29.8 °F 15.8 °F 41% 30.27 in 10.0 mi West 11.5 mph 17.3 mph N/A   Partly Cloudy
3:55 PM 37.4 °F 32.8 °F 17.6 °F 45% 30.27 in 10.0 mi WNW 5.8 mph - N/A   Clear
4:15 PM 35.6 °F 28.6 °F 15.8 °F 44% 30.28 in 10.0 mi West 9.2 mph - N/A   Clear
4:35 PM 35.6 °F 30.7 °F 17.6 °F 48% 30.28 in 10.0 mi West 5.8 mph - N/A   Clear
4:55 PM 33.8 °F 27.0 °F 17.6 °F 52% 30.28 in 10.0 mi West 8.1 mph - N/A   Clear
5:15 PM 33.8 °F 27.7 °F 17.6 °F 52% 30.29 in 10.0 mi West 6.9 mph - N/A   Clear
5:35 PM 33.8 °F 29.6 °F 17.6 °F 52% 30.30 in 10.0 mi West 4.6 mph - N/A   Clear
5:55 PM 32.0 °F 27.5 °F 17.6 °F 55% 30.30 in 10.0 mi West 4.6 mph - N/A   Clear
6:15 PM 32.0 °F 28.7 °F 17.6 °F 55% 30.31 in 10.0 mi West 3.5 mph - N/A   Clear
6:35 PM 30.2 °F 26.7 °F 17.6 °F 60% 30.31 in 10.0 mi West 3.5 mph - N/A   Clear
6:55 PM 30.2 °F 26.7 °F 17.6 °F 60% 30.32 in 10.0 mi West 3.5 mph - N/A   Clear
7:15 PM 30.2 °F 26.7 °F 17.6 °F 60% 30.32 in 10.0 mi West 3.5 mph - N/A   Clear
7:35 PM 30.2 °F 26.7 °F 17.6 °F 60% 30.33 in 10.0 mi West 3.5 mph - N/A   Clear
7:55 PM 30.2 °F 26.7 °F 17.6 °F 60% 30.33 in 10.0 mi WSW 3.5 mph - N/A   Clear
8:15 PM 28.4 °F 23.3 °F 17.6 °F 64% 30.33 in 10.0 mi West 4.6 mph - N/A   Clear
8:35 PM 30.2 °F 26.7 °F 19.4 °F 64% 30.34 in 10.0 mi West 3.5 mph - N/A   Clear
8:55 PM 28.4 °F 24.6 °F 19.4 °F 69% 30.33 in 10.0 mi West 3.5 mph - N/A   Mostly Cloudy
9:15 PM 28.4 °F 24.6 °F 19.4 °F 69% 30.34 in 10.0 mi West 3.5 mph - N/A   Overcast
9:35 PM 30.2 °F 26.7 °F 19.4 °F 64% 30.34 in 10.0 mi WSW 3.5 mph - N/A   Overcast
9:55 PM 30.2 °F 25.4 °F 21.2 °F 69% 30.34 in 10.0 mi WSW 4.6 mph - N/A   Overcast
10:15 PM 30.2 °F 24.3 °F 21.2 °F 69% 30.34 in 10.0 mi WSW 5.8 mph - N/A   Overcast
10:35 PM 30.2 °F 25.4 °F 21.2 °F 69% 30.34 in 10.0 mi SSW 4.6 mph - N/A   Overcast
10:55 PM 30.2 °F 25.4 °F 21.2 °F 69% 30.34 in 10.0 mi SW 4.6 mph - N/A   Overcast
11:15 PM 30.2 °F 25.4 °F 21.2 °F 69% 30.33 in 10.0 mi WSW 4.6 mph - N/A   Overcast
11:35 PM 30.2 °F 23.4 °F 21.2 °F 69% 30.34 in 10.0 mi WSW 6.9 mph - N/A   Mostly Cloudy
11:55 PM 30.2 °F 23.4 °F 21.2 °F 69% 30.33 in 10.0 mi SW 6.9 mph - N/A   Clear